Location: Siloam Springs
(36.1881°N, 94.5403°W)
Time: 04:55:08
(UTC-05:00)

CUBESAT XI-V - Pass Details

Date: 29 May 2024
Orbit: 657 x 679 km, 98.2° (Epoch: 16 June)

Event Time Altitude Azimuth Distance (km) Brightness Sun altitude
Exits shadow 03:42:31 63° 248° (WSW) 735 ? -22.5°
Maximum altitude 03:42:39 63° 258° (WSW) 733 ? -22.5°
Drops below altitude 10° 03:47:09 10° 341° (NNW) 2,075 ? -21.9°
Sets 03:49:24 0° 344° (NNW) 2,991 ? -21.6°
